Location: Unspecified
(0.0000°N, 0.0000°E)
Time: 21:57:12
(UTC+00:00)

ANTELSAT - Visible Passes

Search period start: 22 January 2022 00:00
Search period end: 01 February 2022 00:00
Orbit: 606 x 686 km, 97.7° (Epoch: 22 January)

Date Brightness Start Highest point End Pass type
(mag) Time Alt. Az. Time Alt. Az. Time Alt. Az.
22 Jan ? 05:32:34 10° ESE 05:35:07 15° ENE 05:37:42 10° NE visible
22 Jan ? 19:21:41 10° NW 19:24:21 16° WNW 19:27:00 10° WSW visible
24 Jan ? 18:34:02 10° N 18:38:29 68° W 18:42:50 10° SSW visible
25 Jan ? 18:59:51 10° NNW 19:03:42 29° WNW 19:07:30 10° SW visible
26 Jan ? 05:36:39 10° ESE 05:39:42 18° ENE 05:42:47 10° NE visible
26 Jan ? 19:26:53 10° NW 19:28:54 13° WNW 19:30:54 10° WSW visible
28 Jan ? 18:38:41 10° N 18:43:01 56° WNW 18:47:17 10° SSW visible
29 Jan ? 19:04:40 10° NNW 19:08:14 24° WNW 19:11:46 10° SW visible
30 Jan ? 05:40:49 10° SE 05:44:15 21° ENE 05:47:44 10° NNE visible
30 Jan ? 19:32:31 10° WNW 19:33:26 11° WNW 19:34:21 10° W visible
